Flag for Canada Weather past 2 weeks in Coral Harbour, Nunavut, Canada

Now
46 °F

Partly sunny.


Feels Like: 41 °F
Forecast: 28 / 51 °F
Wind: 13 mph from Northeast

Location: Coral Harbour

Current Time: Aug 29, 2015 at 7:07:12 PM

Latest Report: Aug 29, 2015 at 6:00 PM


Visibility: 15 mi

Pressure: 29.89 "Hg

Humidity: 62%

Dew point: 34 °F

Location of Coral HarbourLocation

Historic Weather in Coral Harbour — Graph

°F

Coral Harbour temperature yesterday

Maximum temperature yesterday: 46 °F (at 12:00 PM)
Minimum temperature yesterday: 36 °F (at 3:00 AM)
Average temperature yesterday: 42 °F

Past Weeks' High & Low Weather Summary

 TemperatureHumidityPressure
High55 °F (Aug 16, 1:00 PM)100% (Aug 17, 3:00 AM)30.12 "Hg (Aug 17, 3:00 AM)
Low32 °F (Aug 18, 4:00 AM)44% (Aug 14, 6:00 PM)29.47 "Hg (Aug 17, 10:00 AM)
Average43 °F78%29.83 "Hg
* Reported Aug 14 5:00 PM — Aug 29 5:00 PM, Coral Harbour, Weather by CustomWeather, © 2015

Note: Actual official high and low records may vary slightly from our data, if they occured in-between our weather recording intervals... More about our weather records

Advertising

Coral Harbour weather history for previous 24 hours

 ConditionsComfort  
Time TempWeatherWind HumidityBarometerVisibility
5:00 PM
Sat, Aug 29
46 °FPartly sunny.9 mph57%29.88 "Hg15 mi
4:00 PM46 °FPartly sunny.9 mph62%29.88 "Hg15 mi
3:00 PM46 °FPartly sunny.10 mph62%29.87 "Hg15 mi
2:00 PM46 °FOvercast.7 mph57%29.87 "Hg15 mi
1:00 PM46 °FOvercast.12 mph62%29.86 "Hg15 mi
12:00 PM46 °FOvercast.9 mph57%29.85 "Hg15 mi
11:00 AM45 °FMostly cloudy.10 mph66%29.84 "Hg15 mi
10:00 AM45 °FMostly cloudy.9 mph66%29.84 "Hg15 mi
9:00 AM45 °FMostly cloudy.9 mph66%29.83 "Hg15 mi
8:00 AM41 °FBroken clouds.10 mph76%29.82 "Hg15 mi
7:00 AM39 °FPartly sunny.5 mph87%29.81 "Hg15 mi
6:00 AM37 °FPassing clouds.12 mph87%29.80 "Hg15 mi
5:00 AM39 °FPassing clouds.7 mph87%29.78 "Hg15 mi
4:00 AM39 °FPassing clouds.8 mph87%29.77 "Hg15 mi
3:00 AM37 °FPassing clouds.9 mph93%29.75 "Hg15 mi
2:00 AM39 °FPartly cloudy.9 mph87%29.74 "Hg15 mi
1:00 AM39 °FPartly cloudy.10 mph87%29.72 "Hg15 mi
12:00 AM39 °FPartly cloudy.7 mph87%29.71 "Hg15 mi
11:00 PM
Fri, Aug 28
39 °FPartly cloudy.8 mph87%29.70 "Hg15 mi
10:00 PM39 °FPartly cloudy.5 mph81%29.69 "Hg15 mi
9:00 PM37 °FPartly sunny.6 mph87%29.68 "Hg15 mi
8:00 PM41 °FOvercast.9 mph81%29.67 "Hg15 mi
7:00 PM45 °FBroken clouds.15 mph66%29.65 "Hg15 mi
Weather by CustomWeather, © 2015

See weather overviewHow to use our weather pages